User: anonymous   Login
Location: *
(46.0770°N, 1.6444°E)
Time: 12:07:30
(UTC+00:00)
Language:

Cosmos 1980 - Orbit

View from above orbital plane
View from above orbital plane
View from above satellite
View from above satellite

Ground track
Ground track

The orbit data is extracted from the following two-line orbital elements,

1 19649U 88102A   19325.16030257  .00000177  00000-0  11660-3 0  9994
2 19649  71.0007   4.1343 0004051  23.4663 336.6643 14.14702365600016
Epoch (UTC): 21 November 2019 03:50:50
Eccentricity: 0.0004051
inclination: 71.0007°
perigee height: 840 km
apogee height: 846 km
right ascension of ascending node: 4.1343°
argument of perigee: 23.4663°
revolutions per day: 14.14702365
mean anomaly at epoch: 336.6643°
orbit number at epoch: 60001

The dashed part of the orbit path shows where the satellite is in the earth's shadow,  

DLR